Skip Page Navigation
NASA JPL Caltech
NASA Logo - Jet Propulsion Laboratory + View the NASA Portal
+ Center for Near-Earth Object Studies
JPL Home Earth Solar System Stars & Galaxies Technology
JPL Solar System Dynamics
BODIES ORBITS EPHEMERIDES TOOLS PHYSICAL DATA DISCOVERY FAQ SITE MAP
JPL Small-Body Database Browser
Search: [ help ]  
1559 Kustaanheimo (1942 BF)
Classification: Main-belt Asteroid          SPK-ID: 2001559
Ephemeris | Orbit Diagram | Orbital Elements | Mission Design | Physical Parameters | Discovery Circumstances ]

[ hide orbit diagram ]

For accurate long-term ephemerides, please instead use our Horizons system.This orbit viewer was implemented using two-body methods, and hence should not be used for determining accurate long-term trajectories (over several years or decades) or planetary encounter circumstances.


[ revert to old Java-based viewer ]

Orbital Elements at Epoch 2459000.5 (2020-May-31.0) TDB
Reference: JPL 35 (heliocentric ecliptic J2000)
 Element Value Uncertainty (1-sigma)   Units 
e .1333431610818376 3.6881e-08  
a 2.390337641449782 6.2115e-09 au
q 2.071602464285964 8.8058e-08 au
i 3.190784037105066 3.458e-06 deg
node 327.9032497379035 6.1324e-05 deg
peri 216.7369848721672 6.2425e-05 deg
M 26.04945184196916 1.0671e-05 deg
tp 2458902.825006553961
(2020-Feb-23.32500655)
4.0095e-05 TDB
period 1349.855569088091
3.70
5.2615e-06
1.441e-08
d
yr
n .2666951992820993 1.0395e-09 deg/d
Q 2.7090728186136 7.0397e-09 au
  Orbit Determination Parameters
   # obs. used (total)      3298  
   data-arc span      31152 days (85.29 yr)  
   first obs. used      1935-04-23  
   last obs. used      2020-08-06  
   planetary ephem.      DE431  
   SB-pert. ephem.      SB431-N16  
   condition code      0  
   norm. resid. RMS      .40611  
   source      ORB  
   producer      Otto Matic  
   solution date      2020-Aug-24 22:36:39  

Additional Information
 Earth MOID = 1.07469 au 
 Jupiter MOID = 2.25704 au 
 T_jup = 3.518 
[ show covariance matrix ]

Ephemeris | Orbit Diagram | Orbital Elements | Mission Design | Physical Parameters | Discovery Circumstances ]

Physical Parameter Table
Parameter Symbol Value Units Sigma Reference Notes
absolute magnitude H 12.0   n/a MPO452181  
diameter diameter 10.725 km 0.176 urn:nasa:pds:neowise_diameters_albedos::2.0[mainbelt] (http://adsabs.harvard.edu/abs/2014ApJ...791..121M)  
rotation period rot_per 4.302 h n/a LCDB (Rev. 2019-August); Warner et al., 2009 Published Reference List:
[Behrend, R. (2005) Observatoire de Geneve web site, http://obswww.unige.ch/~behrend/page_cou.html]
[Menke, J.; Cooney, W.; Gross, J.; Terrell, D. (2008) Minor Planet Bull. 35, 155-160.]
[Hanus, J.; Durech, J.; Broz, M.; Marciniak, A.; et al. (2013) Astron. Astrophys. 551, A67.]
[Pravec, P.; Wolf, M.; Sarounova, L. (2016) http://www.asu.cas.cz/~ppravec/neo.htm]
geometric albedo albedo 0.267   0.048 urn:nasa:pds:neowise_diameters_albedos::2.0[mainbelt] (http://adsabs.harvard.edu/abs/2014ApJ...791..121M)  

1559 Kustaanheimo (1942 BF)          Discovered 1942-Jan-20 by Oterma, L. at Turku
Reference: DISCOVERY.DBLast Updated: 2003-08-29

Alternate Designations
 1942 BF = 1935 FP = 1935 HB 
Ephemeris | Orbit Diagram | Orbital Elements | Mission Design | Physical Parameters | Discovery Circumstances ]
ABOUT SSD CREDITS/AWARDS PRIVACY/COPYRIGHT GLOSSARY LINKS
FirstGov 2020-Sep-26 07:56 UT
(server date/time)  
NASA Home Page
Site Manager:   Ryan S. Park
Webmaster  Alan B. Chamberlin